571  
SXUS52 KCHS 022310  
OSOCHS  
 
MARINE OBSERVATIONS  
NATIONAL WEATHER SERVICE CHARLESTON SC  
600 PM EST SAT MAR 02 2024  
   
..DOWNTOWN CHARLESTON AND HARBOR
 
 
 
CITY SKY/WX TMP DP RH WIND PRES REMARKS  
WATERFRONT PRK N/A 64 60 87 SW7 29.97S  
   
..LAKE MOULTRIE
 
 
 
CITY SKY/WX TMP DP RH WIND PRES REMARKS  
PINOPOLIS N/A N/A N/A N/A VRB2 N/A  
   
..LAKE AND SUPPLEMENTAL COASTAL OBSERVATIONS
 
 
 
STATION/POSITION TIME TEMP WIND PRES WAVE SWELL  
AIR SEA DIR/SP/G HT/PER HT/PER/DIR  
(UTC) (F) (DEG/KT/KT) (MB) (FT/S) (FT/S/D)  
CHRLSTN HARBOR 2230 58 210/ 7/ 9 1020.0F  
FORT PULASKI 2230 58 110/ 5/ 5 1019.7F  
SAPELO ISLAND 2200 67 60/ 2 1020.0  
WINYAH BAY 2145 68 180/ 4 1020.0  
LAKE MURRAY 2220 64 CALM / 3 N/A  
ACE BASIN NERRS 2145 63 CALM 1021.0  
 
   
..C-MAN AND BUOY OBSERVATIONS
 
 
 
STATION/POSITION TIME TEMP WIND PRES WAVE SWELL  
AIR SEA DIR/SP/G HT/PER HT/PER/DIR  
(UTC) (F) (DEG/KT/KT) (MB) (FT/S) (FT/S/D)  
BUOY 41004 2250 65 69 240/ 8/ 10 1020.3F 6/ 8 5/110/ 8  
BUOY 41008 2250 60 59 130/ 4/ 6 1020.5R 4/ 9 3/ 90/ 9  
FOLLY BEACH CMAN NOT AVBL  
PRITCHARDS ISLAN NOT AVBL  
CHAS PILOT BUOY NOT AVBL  
CHAS PILOT WAVE 2202 N/A 5/ 9  
CAPERS NS BUOY 2208 58 210/ 8/ 10 1019.4R  
CAPERS NS WAVE 2222 N/A 3/ 9  
FRIPP NS BUOY 2208 59 350/ 2/ 4 1020.8F  
FRIPP NS WAVE 2200 58 N/A 3/ 9  
5E ST. MARYS GA 2200 62 60 N/A 3/ 7  
 
 
STATION/POSITION TIME TEMP WIND PRES WAVE SWELL  
AIR SEA DIR/SP/G HT/PER HT/PER/DIR  
(UTC) (F) (DEG/KT/KT) (MB) (FT/S) (FT/S/D)  
FRYING PAN BUOY 2250 62 59 210/ 4/ 6 1020.3R 8/ 9 8/120/ 9  
BUOY 41025 2250 62 220/ 14/ 17 1019.4R 11/ 8  
CAPE LOOKOUT NC 2200 59 220/ 11/ 13 1020.2R  
BUOY 41002 2240 70 72 150/ 8/ 12 1021.4R  
BUOY 41010 NOT AVBL  
ST AUGUSTINE FL 2300 64 60 160/ 5/ 5 1018.8F  
 

 
 
 
CLICK HERE TO GO TO PREVIOUS BULLETINS.

The Nexlab SC Page
The Nexlab GA Page Main Text Page